Ardmore, OK

4:56 AM CDT on April 26, 2018 (GMT -0500)
Ardmore Municipal

Weather History for KADM - February, 2011

Change the Weather History Date:

Friday, February 18, 2011

  Actual Average Record
Temperature  
Mean Temperature 64 °F -  
Max Temperature 77 °F 55 °F 78 °F (2014)
Min Temperature 50 °F 37 °F 21 °F (2006)
Degree Days  
Heating Degree Days 2    
Growing Degree Days 14 (Base 50)    
Moisture  
Dew Point 58 °F    
Average Humidity 90    
Maximum Humidity 100    
Minimum Humidity 57    
Precipitation  
Precipitation 0.00 in - - ()
Sea Level Pressure  
Sea Level Pressure 30.02 in    
Wind  
Wind Speed 4 mph (SE)    
Max Wind Speed 10 mph    
Max Gust Speed -    
Visibility 7 miles    
Events Fog    
Averages and records for this station are not official NWS values.
T = Trace of Precipitation, MM = Missing Value Source: NWS Daily Summary

Daily Weather History Graph

Daily Weather History Graph

Search for Another Location

Airport or City:

Astronomy

Feb. 18, 2011 Rise Set
Actual Time 7:10 AM CST 6:14 PM CST
Civil Twilight 6:44 AM CST 6:39 PM CST
Nautical Twilight 6:15 AM CST 7:09 PM CST
Astronomical Twilight 5:46 AM CST 7:38 PM CST
Moon 7:03 PM CST (2/18) 7:03 AM CST (2/18)
Length of Visible Light 11h 55m
Length of Day
11h 04m
Full, 100% of the Moon is Illuminated
Feb 18
Full
Feb 24
Last Quarter
Mar 4
New
Mar 12
First Quarter
Mar 19
Full

Hourly Weather History & Observations

Time (CST) Temp. Dew Point Humidity Pressure Visibility Wind Dir Wind Speed Gust Speed Precip Events Conditions
12:10 AM 62.6 °F 59.0 °F 88% 29.93 in 10.0 mi South 3.5 mph - N/A   Clear
12:30 AM 62.6 °F 59.0 °F 88% 29.93 in 10.0 mi South 4.6 mph - N/A   Clear
12:50 AM 62.6 °F 59.0 °F 88% 29.94 in 10.0 mi ESE 3.5 mph - N/A   Clear
1:10 AM 60.8 °F 59.0 °F 94% 29.94 in 10.0 mi SSE 3.5 mph - N/A   Clear
1:30 AM 60.8 °F 59.0 °F 94% 29.94 in 10.0 mi SSW 4.6 mph - N/A   Clear
1:50 AM 60.8 °F 59.0 °F 94% 29.94 in 10.0 mi South 3.5 mph - N/A   Clear
2:10 AM 60.8 °F 59.0 °F 94% 29.94 in 10.0 mi South 5.8 mph - N/A   Clear
2:30 AM 60.8 °F 59.0 °F 94% 29.94 in 10.0 mi South 4.6 mph - N/A   Clear
2:50 AM 60.8 °F 59.0 °F 94% 29.94 in 10.0 mi South 4.6 mph - N/A   Clear
3:10 AM 60.8 °F 59.0 °F 94% 29.95 in 10.0 mi SSW 3.5 mph - N/A   Clear
3:30 AM 60.8 °F 59.0 °F 94% 29.94 in 10.0 mi South 4.6 mph - N/A   Clear
3:50 AM 59.0 °F 57.2 °F 94% 29.95 in 10.0 mi South 3.5 mph - N/A   Clear
4:10 AM 59.0 °F 57.2 °F 94% 29.96 in 10.0 mi South 3.5 mph - N/A   Clear
4:30 AM 59.0 °F 57.2 °F 94% 29.97 in 7.0 mi SSE 3.5 mph - N/A   Clear
4:50 AM 59.0 °F 59.0 °F 100% 29.98 in 7.0 mi Calm Calm - N/A   Clear
5:10 AM 57.2 °F 57.2 °F 100% 29.99 in 7.0 mi Calm Calm - N/A   Clear
5:30 AM 53.6 °F 53.6 °F 100% 29.99 in 2.5 mi Calm Calm - N/A   Clear
5:50 AM 50.0 °F 50.0 °F 100% 30.00 in 0.2 mi Calm Calm - N/A Fog Fog
6:10 AM 51.8 °F 51.8 °F 100% 30.01 in 0.2 mi Calm Calm - N/A Fog Fog
6:30 AM 53.6 °F 53.6 °F 100% 30.01 in 0.2 mi Calm Calm - N/A Fog Fog
6:55 AM 50.0 °F 50.0 °F 100% 30.02 in 0.2 mi Calm Calm - N/A Fog Fog
7:55 AM 53.6 °F 53.6 °F 100% 30.05 in 1.8 mi Calm Calm - N/A   Overcast
8:55 AM 59.0 °F 59.0 °F 100% 30.09 in 0.2 mi Calm Calm - N/A Fog Fog
9:55 AM 60.8 °F 60.8 °F 100% 30.12 in 4.0 mi Calm Calm - N/A   Overcast
10:55 AM 62.6 °F 60.8 °F 94% 30.13 in 5.0 mi Calm Calm - N/A   Overcast
12:55 PM 69.8 °F 60.8 °F 73% 30.10 in 10.0 mi East 4.6 mph - N/A   Overcast
1:55 PM 73.4 °F 60.8 °F 65% 30.09 in 10.0 mi ENE 4.6 mph - N/A   Mostly Cloudy
2:55 PM 77.0 °F 60.8 °F 57% 30.07 in 10.0 mi East 8.1 mph - N/A   Scattered Clouds
3:55 PM 77.0 °F 60.8 °F 57% 30.06 in 10.0 mi ESE 6.9 mph - N/A   Scattered Clouds
4:55 PM 75.2 °F 62.6 °F 65% 30.06 in 10.0 mi East 8.1 mph - N/A   Clear
7:55 PM 66.2 °F 60.8 °F 83% 30.08 in 10.0 mi East 8.1 mph - N/A   Clear
8:55 PM 66.2 °F 60.8 °F 83% 30.08 in 10.0 mi ESE 10.4 mph - N/A   Clear
9:55 PM 64.4 °F 60.8 °F 88% 30.10 in 10.0 mi ESE 6.9 mph - N/A   Clear
10:30 PM 62.6 °F 60.8 °F 94% 30.10 in 7.0 mi ESE 4.6 mph - N/A   Clear
10:50 PM 62.6 °F 59.0 °F 88% 30.10 in 7.0 mi ESE 4.6 mph - N/A   Clear
11:10 PM 60.8 °F 60.8 °F 100% 30.10 in 7.0 mi East 5.8 mph - N/A   Mostly Cloudy
11:30 PM 62.6 °F 60.8 °F 94% 30.10 in 7.0 mi ESE 5.8 mph - N/A   Overcast